Tracking 31011 objects as of 11-Jul-2025
HD Live streaming from Space Station
objects crossing your sky now

CZ-6A DEB

Track CZ-6A DEB now!
10-day predictions


NORAD ID: 54920
Int'l Code: 2022-151RH
Perigee: 623.0 km
Apogee: 735.1 km
Inclination: 98.7 °
Period: 98.2 minutes
Semi major axis: 7050 km
RCS: Unknown
Launch date: November 11, 2022
Source: People's Republic of China (PRC)
Launch site: Taiyaun Space Center, China (TSC)

Note: This is SATELLITE DEBRIS
Your satellite tracking list
Your tracking list is empty




NASA's NSSDC Master Catalog

Two Line Element Set (TLE):
1 54920U 22151RH  25191.06539495  .00006432  00000-0  11140-2 0  9994
2 54920  98.6526 238.9798 0079450 251.4683 107.7875 14.66610949136908
Source of the keplerian elements: AFSPC